Wind_Speed
11 11 11 12 12 13 13 13 14 14 15 16 17 17 18 20 20 21 22 22 22 22 23 24 24 24 24 25 26 26 27 27 28 29 30 31 31 31
11 11 11 12 12 13 13 13 13 14 15 16 17 18 19 20 20 20 20 21 22 22 23 24 24 24 24 25 26 26 27 27 29 30 30 31 32 33
12 12 11 12 12 12 13 13 14 15 16 17 18 19 19 20 20 20 21 21 22 22 23 23 24 25 26 26 27 27 28 28 29 30 31 31 32 33
13 12 12 12 12 12 13 13 14 15 17 18 19 19 19 20 20 21 21 22 23 24 24 25 25 26 26 27 27 28 28 29 30 31 32 33 33 34
13 13 13 13 13 13 13 14 15 16 17 18 18 19 19 20 21 21 22 23 24 24 24 25 26 26 27 28 28 29 29 29 31 32 34 34 35 35
14 13 13 14 14 14 14 15 16 16 17 18 19 19 21 21 22 22 23 23 24 25 26 27 26 26 28 29 29 29 30 31 32 33 34 34 34 35
14 14 14 15 15 16 16 16 17 17 18 18 19 20 21 22 22 23 23 24 25 26 27 27 27 27 28 28 29 30 31 32 33 33 34 34 35 35
14 14 15 15 16 17 17 17 18 18 19 20 20 21 21 22 22 23 24 25 26 26 26 26 26 27 27 28 29 30 31 32 33 33 34 35 35 36
15 15 16 16 17 17 18 18 19 19 20 21 21 22 22 23 23 24 25 26 26 26 26 26 26 27 27 28 29 30 31 32 33 33 34 35 35 36
17 17 18 18 19 19 19 20 20 21 21 22 22 23 23 23 24 24 25 25 25 25 25 26 26 26 27 28 29 30 31 31 32 32 33 33 34 34
19 19 20 20 20 21 21 21 21 22 22 22 23 23 23 23 24 24 24 24 25 25 25 26 26 26 27 27 28 29 29 30 30 30 31 31 32 31
20 20 21 21 21 22 22 22 22 22 23 23 24 24 24 23 23 23 24 25 25 26 26 26 26 27 27 28 28 29 29 29 29 29 30 30 29 29
22 22 22 23 23 23 23 23 23 24 24 24 24 24 24 23 23 24 25 26 26 27 27 27 27 27 28 28 28 28 28 28 28 28 29 29 29 28
23 24 24 24 24 24 24 24 24 24 24 25 24 24 24 23 24 24 25 27 27 27 27 27 27 27 28 28 28 28 28 28 28 28 28 28 28 28
24 25 25 24 24 24 25 25 25 25 25 25 25 25 25 25 25 25 26 26 27 27 27 28 28 28 28 28 28 28 28 28 27 27 27 27 27 28
25 25 25 25 25 24 25 25 25 25 25 26 26 25 25 26 26 26 26 27 27 28 28 28 28 28 28 28 28 28 28 27 27 27 27 27 28 27
25 25 25 25 25 25 25 25 25 25 25 25 25 25 25 25 26 26 26 27 28 28 28 28 28 28 28 28 27 27 27 27 27 27 27 27 26 26
25 25 25 25 25 26 26 26 26 26 26 25 25 25 25 26 26 27 27 27 27 28 28 28 28 28 28 27 27 27 27 28 27 27 27 26 26 26
25 25 25 25 26 26 26 25 25 26 26 26 25 26 26 26 27 27 27 28 28 28 28 28 28 28 28 28 28 27 27 27 27 27 27 26 26 27
25 25 25 25 25 26 26 26 26 26 26 26 26 26 26 27 27 27 28 28 28 28 28 28 28 28 28 28 28 28 28 28 27 26 27 27 27 28
25 25 25 25 26 26 26 26 27 27 27 27 27 27 27 28 28 28 28 28 28 28 29 29 29 28 28 28 28 28 29 29 28 28 28 28 28 28
25 25 26 26 27 27 27 27 27 28 27 27 28 28 29 29 29 29 28 29 29 28 29 29 29 28 28 28 28 28 28 29 29 29 29 29 29 28
26 26 27 27 27 27 27 28 28 29 28 28 29 29 29 29 29 29 29 29 29 29 29 29 29 29 29 29 29 29 29 29 29 29 29 29 30 29
Wind_Direction
316 310 306 303 298 294 285 282 282 282 282 282 283 284 285 286 282 279 279 281 282 279 278 276 276 275 274 273 273 273 272 271 271 272 272 272 272 271
319 314 311 308 304 297 289 285 285 284 284 285 287 285 287 289 285 284 285 285 283 279 279 278 276 275 277 277 276 274 274 273 273 273 273 273 273 273
320 320 317 314 309 304 298 292 287 285 286 288 287 286 288 287 288 288 286 285 285 282 280 280 279 279 279 277 276 275 275 275 275 275 274 274 274 274
320 316 314 314 313 310 302 297 294 291 289 291 290 289 289 289 290 288 287 287 287 287 284 282 281 281 280 280 279 278 277 277 276 276 275 275 275 275
322 319 315 316 313 311 304 299 297 295 294 295 293 294 294 293 292 291 290 289 288 288 289 287 285 284 282 282 281 280 280 279 278 278 279 278 276 276
320 319 317 317 317 314 309 304 301 298 297 296 295 295 295 294 293 293 293 292 292 292 292 291 290 288 285 284 283 282 281 280 280 280 280 280 280 279
320 318 316 317 316 313 310 306 304 302 299 298 297 298 297 296 295 295 295 296 295 295 294 292 290 288 287 286 286 285 284 282 282 282 282 282 281 281
321 317 315 317 317 315 312 309 304 302 300 300 299 299 298 299 299 298 299 299 299 298 297 295 292 291 291 290 289 288 287 287 286 286 285 284 284 283
319 316 315 318 318 316 313 311 308 305 303 303 302 301 300 300 300 300 300 300 300 300 299 297 296 295 295 294 293 292 291 291 290 289 288 287 286 285
317 316 316 316 315 314 312 310 308 307 306 306 305 304 303 303 302 302 302 302 302 303 302 300 299 298 297 296 295 295 294 294 293 293 292 291 290 289
315 314 314 315 314 313 311 310 309 309 308 307 307 306 305 305 305 305 305 306 307 307 306 304 302 301 300 299 299 298 298 297 297 296 295 295 294 293
315 314 314 314 314 313 312 311 310 309 309 308 306 306 305 305 305 306 306 307 307 307 307 306 305 304 303 303 302 302 302 301 301 300 298 297 297 296
313 313 313 313 312 312 312 311 309 309 309 308 307 306 306 306 305 306 307 307 308 308 308 307 307 306 306 305 305 305 304 304 303 302 300 298 297 296
310 311 312 312 311 311 310 310 309 309 308 308 307 306 306 305 305 305 307 309 309 310 310 309 309 308 307 307 306 306 305 304 304 303 302 300 299 298
309 310 311 312 311 311 311 310 310 310 308 307 306 305 304 304 304 306 308 309 309 310 310 310 310 309 308 308 307 306 306 305 304 304 303 302 302 301
308 309 309 310 310 310 311 311 310 309 308 307 306 306 305 305 305 307 308 309 309 310 311 311 311 310 309 308 308 307 306 305 305 305 304 303 303 303
309 310 309 309 310 311 312 312 311 310 311 310 308 307 307 306 306 307 308 310 310 310 311 311 311 311 310 309 308 308 308 308 307 306 306 306 305 305
308 309 309 307 308 310 311 311 310 310 310 308 307 307 307 306 307 307 308 309 310 310 310 310 310 310 310 310 309 309 308 308 308 307 307 307 307 307
306 307 308 308 308 309 310 310 310 310 309 307 306 307 307 306 306 306 307 308 309 309 309 309 309 309 309 309 308 308 308 308 308 308 308 308 307 307
305 306 307 308 309 310 310 309 310 310 309 308 307 306 306 306 305 305 306 306 307 307 308 308 309 309 308 308 308 308 308 309 309 308 308 308 308 307
304 306 307 307 308 309 309 309 309 309 308 308 307 307 307 306 305 305 305 305 305 306 307 308 308 308 308 308 308 308 308 309 309 308 308 307 307 307
304 305 305 306 307 308 308 308 308 308 307 307 307 307 307 306 305 304 305 306 305 306 307 308 307 307 308 308 308 307 307 307 307 308 308 308 308 307
301 302 304 305 306 308 308 307 307 307 306 306 307 308 307 307 305 304 305 306 306 306 307 308 308 308 308 308 307 306 305 306 306 306 307 307 307 307
Height
5873 5871 5869 5868 5866 5865 5863 5862 5862 5861 5859 5858 5856 5855 5853 5851 5849 5848 5846 5844 5843 5842 5840 5839 5838 5837 5836 5834 5833 5832 5831 5830 5829 5828 5827 5826 5825 5824
5870 5869 5867 5865 5863 5861 5860 5859 5858 5857 5855 5854 5852 5850 5848 5846 5845 5843 5841 5839 5838 5836 5835 5833 5832 5831 5829 5828 5826 5825 5824 5822 5821 5820 5818 5817 5816 5815
5867 5866 5864 5861 5860 5858 5856 5855 5854 5853 5851 5849 5847 5846 5844 5842 5840 5838 5836 5834 5832 5830 5829 5827 5826 5824 5822 5821 5819 5817 5816 5815 5813 5812 5810 5809 5807 5806
5864 5863 5861 5859 5857 5855 5853 5851 5850 5848 5847 5845 5843 5841 5839 5837 5835 5832 5830 5828 5826 5824 5822 5820 5819 5817 5815 5813 5811 5809 5808 5806 5805 5803 5801 5800 5798 5797
5861 5860 5858 5856 5854 5852 5850 5848 5846 5844 5842 5840 5838 5836 5834 5831 5829 5827 5825 5822 5820 5818 5815 5813 5811 5809 5807 5805 5803 5801 5799 5798 5796 5794 5792 5790 5789 5787
5859 5857 5855 5853 5851 5848 5846 5844 5842 5840 5838 5836 5834 5831 5829 5826 5824 5821 5819 5816 5814 5811 5809 5806 5804 5802 5800 5797 5795 5793 5791 5789 5786 5785 5783 5781 5779 5777
5855 5853 5852 5849 5847 5845 5843 5840 5838 5836 5833 5831 5829 5826 5823 5821 5818 5816 5813 5810 5807 5805 5802 5799 5797 5794 5792 5790 5787 5785 5782 5780 5777 5775 5773 5771 5768 5766
5852 5850 5848 5846 5844 5841 5839 5836 5834 5831 5829 5826 5824 5821 5818 5815 5812 5809 5807 5804 5801 5798 5795 5792 5789 5787 5784 5781 5779 5776 5773 5770 5768 5765 5763 5760 5758 5755
5849 5847 5845 5842 5840 5837 5834 5832 5829 5826 5824 5821 5818 5815 5812 5810 5807 5804 5800 5797 5795 5791 5788 5785 5782 5779 5776 5773 5770 5767 5764 5761 5758 5755 5752 5749 5747 5744
5846 5843 5841 5838 5835 5833 5830 5827 5824 5821 5818 5815 5813 5810 5807 5804 5801 5798 5794 5791 5788 5785 5781 5778 5775 5772 5769 5765 5762 5759 5756 5752 5749 5746 5742 5739 5736 5734
5842 5839 5836 5833 5831 5828 5825 5822 5819 5816 5813 5810 5807 5804 5801 5798 5795 5792 5788 5785 5781 5778 5775 5772 5768 5765 5761 5757 5754 5751 5747 5744 5740 5737 5734 5730 5727 5724
5837 5834 5831 5828 5825 5822 5820 5816 5813 5810 5807 5804 5801 5798 5795 5792 5789 5786 5782 5779 5775 5772 5768 5765 5761 5758 5754 5750 5746 5743 5739 5735 5732 5729 5725 5722 5719 5716
5832 5829 5826 5823 5820 5817 5814 5811 5808 5804 5801 5798 5795 5792 5789 5785 5782 5779 5776 5773 5769 5766 5762 5758 5754 5750 5747 5743 5739 5735 5732 5728 5724 5721 5717 5714 5711 5707
5827 5824 5820 5817 5814 5811 5808 5804 5801 5798 5795 5792 5789 5785 5782 5779 5776 5773 5770 5766 5762 5759 5755 5751 5747 5743 5740 5736 5732 5728 5724 5720 5717 5713 5710 5706 5703 5699
5821 5818 5814 5811 5808 5805 5801 5798 5795 5792 5789 5785 5782 5779 5776 5773 5770 5767 5763 5759 5755 5752 5748 5744 5740 5736 5732 5728 5725 5721 5717 5713 5709 5706 5702 5699 5695 5692
5815 5811 5808 5805 5802 5799 5795 5792 5789 5785 5782 5779 5776 5773 5770 5766 5763 5760 5756 5752 5749 5745 5741 5737 5733 5729 5725 5721 5717 5713 5710 5706 5702 5699 5695 5691 5688 5684
5808 5805 5802 5799 5796 5793 5789 5786 5783 5780 5776 5773 5769 5766 5763 5760 5756 5753 5750 5746 5742 5738 5734 5730 5726 5722 5718 5714 5710 5706 5702 5699 5695 5692 5688 5685 5681 5677
5802 5799 5796 5793 5790 5787 5783 5780 5776 5773 5770 5767 5763 5760 5757 5753 5750 5746 5743 5739 5735 5731 5727 5723 5719 5715 5711 5707 5704 5699 5696 5692 5688 5685 5681 5678 5674 5671
5795 5793 5790 5787 5783 5780 5776 5773 5770 5767 5763 5760 5757 5753 5750 5746 5743 5739 5736 5732 5728 5724 5720 5716 5712 5708 5705 5701 5697 5693 5689 5685 5681 5678 5674 5671 5667 5664
5789 5786 5783 5780 5777 5773 5770 5766 5763 5760 5756 5753 5750 5746 5743 5739 5736 5732 5729 5725 5721 5717 5713 5709 5705 5701 5698 5694 5690 5686 5682 5678 5674 5671 5667 5664 5660 5657
5782 5779 5776 5773 5770 5766 5763 5760 5756 5753 5750 5746 5743 5739 5736 5732 5729 5725 5721 5717 5714 5710 5706 5702 5698 5694 5690 5686 5683 5679 5675 5671 5667 5664 5660 5657 5653 5649
5775 5772 5769 5766 5763 5759 5756 5753 5749 5746 5743 5739 5736 5732 5728 5725 5721 5717 5714 5710 5706 5702 5698 5694 5690 5686 5683 5679 5675 5671 5668 5664 5660 5656 5652 5649 5645 5641
5768 5765 5762 5759 5756 5752 5749 5746 5742 5739 5735 5732 5728 5724 5721 5717 5713 5710 5706 5702 5698 5695 5691 5687 5683 5679 5675 5671 5668 5664 5660 5656 5652 5649 5645 5641 5637 5634